GFSMA_2pvu_pres_216.txt.gz
Presure
181 206 163 178 171 182 194 170 158 196 187 183 188 191 164 189 181 191 167 193 197 194 192 193 164 174 151 153 179 176 160 178 164 187 231 201 208 203 191 201 199 201 195
170 284 161 119 177 173 174 161 188 154 185 171 189 194 176 180 211 181 166 195 191 198 163 169 185 154 152 207 226 230 192 217 181 193 158 182 204 205 198 194 190 195 194
166 182 147 138 156 138 166 169 169 171 179 177 152 187 180 191 170 170 173 190 183 171 200 197 136 175 197 199 204 163 215 235 202 166 167 199 171 167 204 199 201 192 199
209 136 164 156 168 153 161 152 158 145 146 176 180 176 181 167 187 177 178 183 183 192 188 178 176 210 194 188 208 169 207 211 217 205 184 209 169 170 165 206 196 161 181
146 178 185 163 146 172 145 154 123 158 157 166 169 167 172 176 169 165 177 174 173 185 172 172 188 190 139 177 202 192 207 198 169 204 219 225 170 169 165 171 191 153 192
162 148 155 205 159 160 168 144 154 153 155 155 166 186 182 184 157 167 189 159 172 173 169 175 173 197 176 207 180 199 185 193 214 224 213 213 210 226 219 215 185 163 197
181 181 152 199 100 141 143 157 149 172 144 148 158 181 168 171 160 183 176 171 156 177 172 169 173 179 206 206 183 199 201 215 187 211 221 221 216 173 195 197 190 240 176
191 179 177 223 186 172 149 163 149 152 149 152 152 162 159 166 181 191 161 171 180 169 166 178 191 186 184 181 186 193 191 200 190 200 205 222 216 214 220 204 218 176 204
192 191 182 285 195 167 165 165 160 152 150 155 169 175 166 151 162 179 180 172 171 172 172 174 174 183 173 186 192 181 199 202 201 194 199 228 219 213 201 212 208 218 217
209 240 301 268 232 179 165 143 145 156 146 158 137 135 169 170 178 161 169 177 172 171 183 175 197 190 186 196 203 187 200 191 208 194 209 203 212 226 187 201 179 216 193
215 224 285 268 228 183 169 163 172 149 157 164 181 161 157 177 166 163 178 180 184 185 190 191 202 190 187 173 186 197 197 182 195 193 186 204 196 223 221 200 157 189 207
215 232 267 269 222 188 215 170 174 162 165 189 122 154 160 150 181 172 171 178 185 192 166 201 183 183 180 199 186 188 200 186 207 188 198 212 205 223 237 190 186 215 173
239 253 228 262 262 247 201 174 177 165 177 160 145 156 172 161 173 178 171 188 182 195 195 187 202 180 185 184 182 179 193 192 193 197 199 188 208 199 233 210 201 183 233
243 239 248 244 221 231 198 175 183 182 170 156 153 181 148 182 131 162 158 166 203 178 181 169 170 171 192 192 197 203 184 208 197 209 195 189 201 192 206 193 179 232 177
228 238 223 270 212 279 217 196 185 157 177 167 171 167 162 174 154 167 143 154 177 185 199 210 187 191 173 176 183 209 203 201 180 189 183 208 217 210 200 201 206 205 183
246 246 248 250 263 204 233 200 191 162 160 171 167 176 170 170 169 165 166 172 176 174 183 199 173 171 190 174 172 187 177 179 194 183 218 189 205 204 228 183 188 231 217
277 271 267 267 284 231 206 228 211 198 184 168 176 181 170 171 176 181 186 179 173 170 179 184 195 192 154 205 185 173 188 206 200 186 192 192 216 199 170 233 217 246 224
313 307 290 295 289 243 241 249 214 200 191 183 179 182 178 173 185 191 185 172 199 194 177 177 170 176 176 183 160 183 190 192 215 208 176 226 203 203 192 206 188 225 218
423 359 337 311 296 270 248 251 241 212 195 179 172 189 184 177 196 174 177 184 170 178 185 190 193 200 201 180 174 197 177 196 194 184 195 192 200 206 212 225 223 229 243
390 414 356 331 277 273 288 253 238 226 207 206 194 195 192 192 180 180 194 186 187 188 165 176 177 187 188 170 192 175 198 151 206 189 201 178 201 213 201 173 195 231 185
332 350 373 387 337 317 271 263 250 259 220 205 210 190 200 194 193 189 176 174 185 196 195 192 183 179 181 196 160 173 197 173 194 196 193 191 185 167 237 224 215 228 218
326 329 344 359 333 333 334 290 267 260 246 212 215 203 215 204 202 187 193 192 180 177 172 198 171 151 180 207 180 171 174 200 197 158 192 198 205 179 218 200 215 230 219
299 309 315 332 342 359 364 319 273 268 262 237 210 214 214 188 200 205 184 194 197 189 191 191 192 197 190 193 184 175 179 174 194 196 170 190 206 189 207 210 220 213 208
293 299 301 304 318 342 345 352 353 310 305 264 247 227 217 214 210 201 197 203 198 192 180 190 184 189 190 192 163 183 184 194 176 187 196 194 181 212 211 214 228 217 209
290 281 289 297 301 317 334 353 359 363 372 368 262 241 230 222 157 204 203 204 194 201 181 193 196 192 189 188 192 189 191 190 186 203 206 191 210 215 191 213 224 208 216
288 286 287 296 305 388 330 331 327 331 334 347 357 252 252 231 218 203 218 200 209 194 206 201 192 189 193 190 160 193 192 202 191 205 198 215 217 189 215 226 189 214 197

GFSMA_2pvu_pres_222.txt.gz
Presure
172 167 151 144 162 148 146 167 176 177 163 173 147 173 170 172 172 117 180 167 178 180 184 191 147 179 191 192 187 195 197 191 193 195 197 198 160 191 227 218 182 164 173
185 188 162 145 163 149 156 167 167 158 162 162 163 153 173 175 180 174 163 166 173 178 162 164 178 173 193 194 188 186 184 153 183 179 183 171 185 153 155 167 186 211 214
194 136 179 151 181 146 163 160 151 153 151 154 180 176 183 159 178 166 169 184 154 158 175 175 164 171 177 187 178 166 184 183 164 173 192 187 187 202 209 156 156 155 209
167 124 143 145 142 162 160 161 138 140 145 164 162 145 164 131 162 163 176 184 174 175 161 165 176 179 164 179 169 171 177 176 172 174 163 173 193 202 198 182 197 211 205
153 154 135 132 155 165 152 144 163 147 134 144 158 155 161 173 166 155 175 180 164 169 158 160 188 183 184 193 161 165 193 166 156 181 171 184 171 180 172 197 182 191 202
171 165 134 170 191 162 164 125 147 144 147 148 165 135 162 162 170 171 164 188 154 171 169 172 169 169 185 175 164 164 179 166 173 185 175 183 171 190 201 200 196 188 188
139 151 182 136 158 180 149 121 130 172 159 159 172 118 124 124 163 171 160 189 168 166 159 172 163 175 176 163 190 159 178 171 161 198 180 185 197 199 206 171 197 182 192
155 168 157 137 199 128 131 166 146 133 138 151 190 173 179 133 146 180 151 169 170 169 164 167 169 161 148 186 154 178 179 180 190 168 179 183 191 196 180 211 218 198 221
162 176 195 129 124 160 142 175 135 188 164 129 161 165 158 144 173 184 179 163 177 169 161 157 138 164 164 156 158 171 174 190 194 192 192 199 183 212 215 193 213 211 196
173 182 174 177 206 158 212 197 137 230 182 181 190 146 181 174 142 170 174 138 179 163 161 172 166 146 163 164 139 171 149 174 173 182 192 202 194 183 206 181 208 223 223
189 164 194 182 198 210 179 184 168 141 191 143 199 213 178 183 174 178 179 150 134 130 163 160 164 177 163 176 160 184 146 183 176 171 171 184 173 207 193 208 214 221 204
197 212 195 211 173 157 190 176 183 202 220 213 236 199 198 184 162 181 177 161 171 176 149 154 170 175 148 162 168 164 178 184 192 181 173 187 205 182 170 190 183 182 179
196 214 215 197 204 229 221 161 212 195 206 196 224 183 238 153 149 161 180 167 184 149 166 161 164 157 162 173 178 178 179 174 173 172 175 161 187 184 200 183 177 207 170
193 232 220 217 214 227 240 216 171 191 183 223 236 240 221 241 194 190 168 173 165 176 156 134 173 164 174 163 172 183 155 179 184 188 173 202 165 201 207 165 205 200 165
258 229 256 274 257 243 227 211 204 192 206 205 208 233 216 235 209 193 188 171 170 173 167 177 133 181 157 166 173 151 176 171 164 176 157 194 192 180 184 171 156 168 170
264 251 267 253 275 265 269 236 222 220 212 214 210 209 214 238 193 201 263 184 177 166 161 181 159 168 173 161 155 172 166 177 175 185 164 164 165 200 191 194 181 175 199
270 303 294 276 260 263 259 273 260 237 225 225 229 213 254 262 223 187 184 181 178 175 180 180 179 177 168 174 182 180 173 167 174 149 182 174 163 186 210 187 191 173 201
327 306 296 275 282 274 250 248 241 242 247 238 243 236 239 227 228 236 224 209 194 201 193 178 170 180 158 187 169 127 173 152 172 162 172 194 196 204 181 204 183 200 222
354 295 281 284 285 289 258 252 245 237 252 249 247 237 229 225 206 265 229 221 200 193 188 170 173 173 181 189 180 151 157 172 174 195 182 186 184 192 204 193 182 204 184
320 318 303 302 290 266 276 260 251 253 253 235 236 248 250 244 237 249 238 185 201 191 184 178 175 173 174 175 174 169 164 171 161 186 178 176 197 185 187 172 199 198 171
394 315 312 298 310 320 283 286 270 274 276 276 254 251 245 224 227 242 227 215 204 190 162 179 179 178 173 174 192 188 178 166 160 177 190 195 176 194 181 188 174 187 197
355 360 363 323 297 317 366 367 382 326 303 306 326 252 255 248 228 259 234 219 211 194 193 179 188 188 180 179 179 181 177 178 177 161 178 175 197 185 189 171 196 184 178
310 314 314 314 317 326 327 328 338 348 355 351 370 422 306 166 262 252 237 222 206 195 200 188 202 181 178 182 189 188 185 189 154 194 187 181 159 179 196 192 177 176 194
290 290 292 294 301 305 309 316 328 327 325 334 348 370 401 315 280 270 254 237 254 199 201 198 192 187 193 189 187 177 154 189 184 187 185 178 187 181 179 186 161 189 182
303 297 300 311 313 307 312 309 309 304 313 316 317 335 359 406 293 281 265 255 228 222 198 196 196 193 192 193 187 179 191 187 176 186 164 174 189 179 183 180 187 191 178
292 299 294 301 306 305 297 299 302 296 299 307 317 325 342 378 320 292 287 260 262 238 216 206 201 198 146 192 177 187 200 193 169 191 169 182 193 192 188 170 203 186 196

GFSMA_2pvu_pres_225.txt.gz
Presure
170 181 153 139 164 168 159 156 171 153 168 160 167 160 159 155 165 190 159 171 166 176 164 145 127 165 176 176 190 182 184 190 191 190 194 186 180 194 200 191 222 167 161
149 165 187 165 179 161 147 143 170 171 167 162 164 157 166 174 185 159 177 172 176 167 179 169 165 171 182 168 162 165 175 174 175 181 177 173 185 184 186 198 207 206 182
147 194 161 196 180 140 188 167 143 140 143 164 168 148 169 151 164 173 166 190 169 165 179 155 176 192 178 156 182 183 173 173 173 167 186 178 170 171 166 183 149 190 197
146 106 101 156 157 177 132 173 143 186 146 156 144 165 151 126 144 141 174 140 173 154 165 178 157 174 186 177 189 157 183 166 194 174 172 172 177 176 172 190 178 180 176
146 148 164 151 138 137 120 171 151 157 152 161 152 122 145 170 152 154 137 123 144 188 155 158 171 165 168 172 175 177 165 166 201 180 165 176 166 166 189 182 197 191 207
183 193 175 160 172 178 186 137 134 141 163 159 157 160 136 150 139 138 156 168 126 121 152 150 181 167 174 156 176 163 179 179 186 178 165 163 172 162 218 180 177 198 218
173 184 188 189 207 196 145 142 129 117 138 141 179 130 162 144 161 137 131 182 169 126 157 134 130 177 177 179 172 147 182 174 161 169 202 159 189 174 165 210 181 183 221
96 149 153 161 158 184 161 148 184 132 128 144 184 138 155 140 178 184 123 174 170 153 143 136 161 170 175 148 158 151 154 171 152 175 172 182 174 193 204 168 192 182 193
184 177 174 184 179 180 154 167 146 202 134 181 134 168 166 135 156 140 140 134 151 161 143 160 172 112 180 172 184 160 164 171 141 162 155 191 182 153 183 183 181 206 190
173 157 152 150 159 167 141 141 195 146 175 128 159 165 165 177 143 181 148 178 176 174 160 180 174 157 147 163 166 161 148 134 167 163 144 151 165 194 169 194 210 205 167
159 183 193 172 170 147 177 170 157 176 158 178 159 185 188 134 208 137 131 140 175 151 176 182 165 155 169 173 177 151 162 171 163 165 151 134 142 189 167 197 182 169 168
206 187 227 179 175 167 156 165 207 169 165 179 167 156 166 186 188 241 170 173 205 217 157 163 158 156 163 168 164 164 151 171 168 172 164 171 184 147 165 190 184 166 173
193 157 193 201 187 205 209 203 180 185 185 169 154 219 185 187 197 191 193 185 222 174 198 175 133 174 168 173 173 156 171 168 156 170 159 172 182 151 185 169 177 166 182
198 190 229 187 206 227 203 214 207 201 202 190 184 203 187 183 178 199 143 186 191 216 202 240 178 162 185 145 177 172 165 171 171 149 165 160 184 164 174 159 197 168 205
245 267 249 229 215 232 213 223 217 212 201 229 216 168 180 187 193 189 196 198 180 238 212 178 176 184 176 149 174 150 164 169 162 171 174 176 149 161 176 161 179 173 161
304 288 282 265 260 265 265 236 222 222 209 170 212 206 190 189 200 166 200 209 196 220 199 146 186 220 181 183 157 163 163 161 172 169 160 157 170 175 186 166 180 181 184
415 406 361 353 326 310 278 273 246 246 234 232 245 224 200 194 183 203 201 200 199 206 223 202 213 213 177 178 133 180 179 149 171 163 166 170 150 188 184 176 184 174 160
380 401 376 353 350 348 345 295 294 286 288 282 287 236 213 213 203 215 200 198 202 226 209 206 195 209 187 202 179 182 190 176 174 173 171 186 185 168 187 183 176 165 171
368 422 354 331 318 329 346 309 275 289 257 285 244 237 211 214 211 214 209 212 204 209 219 224 190 235 174 170 189 185 177 185 180 183 182 179 161 168 173 179 181 162 188
394 421 359 334 325 320 334 291 292 276 262 244 248 270 271 246 223 219 215 205 214 211 214 228 239 181 195 196 191 188 182 183 171 167 163 127 176 176 167 167 169 173 166
350 365 382 393 326 347 337 314 300 285 271 262 260 259 280 286 262 227 205 203 213 212 217 235 220 255 176 182 181 181 187 179 182 177 173 180 181 171 173 173 165 170 178
319 323 342 359 373 344 308 300 309 289 270 282 264 272 260 274 265 264 230 218 214 224 239 243 247 255 194 172 176 164 173 172 194 183 181 177 174 180 185 183 146 191 201
307 306 307 318 326 343 332 296 317 306 279 287 278 278 275 284 273 254 247 253 230 228 232 231 233 244 204 204 193 182 186 171 187 184 182 182 181 184 176 164 170 198 180
292 293 296 306 309 316 327 340 333 340 288 287 288 277 292 287 279 252 236 247 236 229 230 233 186 231 210 209 196 189 189 188 187 190 186 182 175 181 173 174 181 179 190
287 291 287 298 298 295 304 310 320 327 338 344 347 299 306 303 279 267 253 251 228 208 235 236 227 255 206 202 205 195 194 197 189 183 179 196 182 182 184 168 179 184 184
292 292 287 304 293 295 307 312 323 310 308 317 321 330 342 357 295 273 254 257 251 239 234 238 227 228 239 200 203 202 162 194 197 190 189 192 190 185 175 184 190 191 180

GFSMA_2pvu_pres_228.txt.gz
Presure
164 161 186 149 148 169 152 158 163 186 159 177 159 162 149 159 172 170 165 164 188 166 182 174 169 176 173 181 169 174 176 175 173 167 185 194 191 191 194 191 180 188 197
161 156 153 152 164 163 156 169 144 169 150 149 158 169 155 165 165 141 151 189 170 173 169 153 162 177 159 175 154 160 175 184 161 167 182 178 182 179 189 188 181 175 145
175 135 181 126 178 174 163 158 164 172 151 145 158 163 131 135 169 135 166 149 182 154 160 177 136 179 180 161 186 183 162 201 169 184 175 182 203 171 172 174 176 198 209
154 176 146 161 138 154 162 151 121 118 146 123 118 152 154 144 154 135 163 174 142 164 131 165 157 173 162 170 171 178 164 177 164 164 159 180 199 187 171 172 164 193 199
147 125 173 177 167 164 134 141 156 142 166 162 145 187 141 150 138 124 164 126 130 142 144 164 158 149 173 169 158 172 171 175 158 169 163 181 168 184 162 169 191 167 180
171 170 161 181 169 171 151 179 158 137 165 168 148 154 144 149 112 131 142 148 187 138 158 160 160 140 119 168 171 138 166 162 156 162 152 166 204 158 210 164 168 166 184
164 178 176 188 195 188 181 155 166 156 226 201 155 176 135 140 138 162 140 145 187 145 151 136 137 122 129 167 133 177 182 161 165 165 145 176 172 179 183 158 165 174 163
165 135 146 150 153 176 204 133 135 177 143 179 171 178 174 144 140 165 148 141 145 148 134 135 175 145 122 157 132 167 165 164 159 161 144 136 174 180 177 150 168 191 158
172 170 184 172 138 135 164 191 149 141 172 165 150 161 169 143 208 138 175 142 129 182 162 140 161 169 150 149 128 168 156 173 170 159 160 164 165 162 178 151 182 172 199
153 173 187 191 176 182 174 162 173 139 135 139 135 197 168 135 181 155 175 141 130 142 137 145 201 173 164 124 151 150 170 172 143 160 178 163 172 136 178 155 154 190 167
111 197 165 161 209 204 198 164 144 163 162 135 164 160 148 189 122 134 131 150 167 187 156 168 149 219 143 183 146 153 137 164 171 162 153 163 172 152 185 153 145 187 161
138 177 178 187 195 199 193 200 200 150 144 186 154 158 176 144 174 149 170 178 198 178 186 138 169 211 202 199 180 189 134 157 154 158 164 153 165 182 172 153 137 134 155
191 202 219 184 187 189 190 188 182 210 189 184 190 184 170 193 165 150 140 151 139 184 183 183 191 188 202 138 186 178 134 206 163 174 174 174 164 164 155 180 165 159 171
204 205 214 218 222 208 205 207 209 207 197 212 229 161 142 195 191 142 144 173 181 182 173 192 186 204 131 193 196 185 183 184 169 191 157 151 164 171 158 172 155 148 182
215 215 227 226 282 257 233 257 229 239 213 205 212 182 221 155 199 197 160 171 182 176 181 192 176 202 202 205 199 173 203 150 191 160 175 169 184 155 162 152 177 171 163
471 482 404 467 363 384 370 333 258 253 257 249 247 227 202 192 206 211 191 182 192 175 186 185 202 158 190 205 190 192 189 121 185 184 154 176 179 142 162 174 154 174 179
429 445 466 396 389 398 411 412 369 334 338 303 246 251 221 202 219 198 164 204 214 202 180 187 204 198 178 154 203 150 214 173 159 152 175 151 153 167 172 180 178 154 190
397 451 424 451 411 395 404 389 371 360 311 321 301 298 263 236 228 206 223 232 198 202 194 192 198 194 193 208 174 215 228 165 185 177 170 148 191 188 187 177 163 191 167
370 376 417 425 404 378 391 397 370 344 330 290 285 283 284 298 218 246 214 210 221 217 190 204 158 202 202 192 199 203 185 168 167 194 183 196 188 175 175 182 183 178 154
351 362 375 395 385 369 389 362 368 346 325 291 299 265 299 296 310 287 238 218 202 199 197 201 201 169 205 196 189 203 193 183 179 204 203 199 189 155 159 188 170 188 152
325 321 335 347 363 377 374 343 334 349 306 304 289 277 290 295 278 277 265 223 212 194 196 195 178 213 208 217 208 209 184 227 187 188 164 187 184 192 183 164 172 170 187
309 308 312 317 321 337 350 335 310 339 303 300 289 275 300 276 268 277 274 278 209 205 205 206 202 208 210 213 216 196 205 214 237 190 207 206 185 187 173 175 180 174 182
308 300 303 305 307 313 321 334 351 325 309 319 317 319 302 276 263 270 279 277 264 255 234 226 227 212 216 208 207 209 218 215 184 183 233 203 195 181 184 178 164 176 162
293 292 291 291 292 294 303 313 316 336 304 292 310 339 289 280 271 266 262 264 264 257 238 226 213 201 202 211 214 214 215 180 181 228 211 182 177 179 188 170 178 173 176
298 288 291 294 293 291 295 294 299 313 323 318 304 319 291 279 260 276 261 250 276 247 236 225 221 223 207 206 205 183 217 222 191 180 224 225 202 188 180 165 188 173 184
293 293 292 293 293 294 296 294 294 305 305 315 323 325 305 278 275 276 275 250 270 241 233 233 225 215 211 234 216 212 201 176 208 207 234 210 202 202 191 183 186 185 191

GFSMA_2pvu_pres_231.txt.gz
Presure
157 169 151 155 167 150 163 161 148 134 165 146 152 145 160 163 150 150 166 165 137 182 152 197 174 183 166 153 162 162 190 163 168 173 185 173 170 183 181 179 190 188 188
149 170 160 152 144 150 171 158 154 138 128 156 136 153 157 169 148 161 157 158 169 159 175 178 158 162 162 165 153 163 173 184 175 176 178 155 174 169 189 188 193 174 184
105 163 154 147 156 150 141 142 143 156 158 153 143 126 150 120 160 124 159 153 129 131 147 163 160 152 145 170 171 147 175 171 157 175 189 160 151 160 177 164 191 173 173
143 143 153 150 143 115 136 127 151 129 141 145 159 145 151 153 154 138 172 140 146 144 161 172 190 182 142 136 149 166 134 158 147 170 165 192 186 165 197 155 197 180 167
169 180 155 139 147 159 152 161 135 131 132 153 148 149 153 140 140 142 182 145 142 124 133 135 127 153 163 157 172 159 176 154 147 140 154 174 153 171 170 174 160 157 172
162 157 170 154 161 150 178 152 145 147 151 137 160 140 155 187 149 178 176 130 149 148 146 131 164 172 163 144 130 170 126 158 163 148 161 174 159 165 155 162 182 164 163
169 135 171 168 173 163 183 181 153 152 146 164 165 171 154 174 145 162 162 160 165 109 162 144 130 123 164 136 170 138 137 124 161 146 163 169 162 159 173 179 177 197 187
153 156 159 161 178 163 167 170 160 183 153 155 135 152 143 159 154 171 162 165 170 179 135 158 146 129 130 132 170 181 129 173 147 116 160 144 160 155 157 164 176 150 157
166 152 177 164 184 182 166 169 180 169 165 147 181 170 158 150 170 159 144 174 149 147 163 172 162 147 170 145 150 163 135 114 170 176 143 151 147 157 160 136 170 184 162
177 184 180 197 158 195 164 171 177 136 154 131 140 194 154 128 157 177 161 162 177 146 175 168 171 140 166 161 143 146 173 177 131 144 171 151 133 165 166 168 162 175 171
191 188 170 189 214 150 194 195 213 190 141 140 144 165 151 126 136 152 153 147 149 129 156 133 184 192 187 191 151 147 156 159 134 178 180 151 162 174 173 160 167 155 180
185 177 180 193 193 189 203 193 183 234 187 192 139 180 161 174 169 168 147 188 137 169 180 149 151 181 143 153 156 184 171 162 158 179 139 195 182 174 157 151 163 157 179
175 190 205 204 206 204 216 227 238 223 194 217 192 179 169 163 179 180 184 149 145 160 158 166 154 165 152 192 158 185 195 178 176 157 189 168 201 172 192 176 164 168 170
234 204 215 234 232 217 221 213 233 239 215 223 213 192 207 195 151 211 153 154 137 132 176 170 176 175 177 150 183 201 162 220 191 141 225 125 160 154 159 165 155 162 175
240 328 372 364 443 372 350 309 310 300 294 266 228 223 211 224 193 193 182 177 190 175 183 183 178 147 167 152 200 199 182 179 189 186 155 194 172 219 213 133 180 175 177
378 395 368 428 389 388 413 393 403 415 411 353 350 270 232 219 237 226 181 192 193 192 151 187 176 151 161 151 187 167 192 153 167 188 155 199 182 126 207 203 151 190 184
423 398 391 388 407 420 442 420 420 424 412 326 380 366 302 241 241 234 235 239 178 218 206 213 191 142 182 182 193 198 183 197 192 192 196 133 175 173 179 197 144 201 164
395 369 381 379 407 424 437 434 406 403 372 463 379 359 334 310 300 276 239 238 248 247 206 224 198 194 192 189 122 187 172 141 182 196 186 148 151 155 202 183 187 155 154
372 372 352 348 355 394 418 405 409 384 376 365 433 361 335 315 305 298 286 270 264 216 211 203 200 183 201 158 188 169 193 190 188 181 197 176 165 207 169 192 204 180 189
350 345 337 334 337 355 371 378 403 385 356 374 390 437 350 291 292 288 305 264 260 262 245 214 211 200 221 209 181 182 182 201 164 195 158 195 170 161 194 199 148 148 198
327 326 324 320 322 319 338 346 356 362 382 384 368 380 345 287 279 281 314 292 280 247 247 228 213 192 214 216 191 192 176 194 183 204 196 203 205 190 169 152 166 170 192
321 309 316 308 306 308 312 317 338 335 337 341 364 361 289 300 279 261 289 296 265 257 248 229 240 240 205 205 211 205 173 180 219 192 213 218 198 207 183 155 181 212 194
323 317 307 295 301 294 300 304 316 326 321 316 319 350 314 310 284 269 268 281 287 266 263 246 244 241 227 206 212 215 207 204 196 209 210 208 201 193 188 194 163 204 200
307 320 301 301 298 297 304 291 300 307 319 324 323 334 342 312 291 279 268 270 288 267 262 247 249 252 248 215 208 204 200 208 200 198 198 202 205 172 211 173 231 205 201
307 314 294 294 301 309 295 297 303 297 305 308 323 321 316 320 304 291 276 268 262 276 257 264 254 267 249 241 203 226 207 204 211 205 215 204 193 204 155 222 209 198 194
315 294 306 303 295 298 297 293 302 310 309 303 306 320 318 332 309 300 277 273 267 274 264 268 280 265 250 235 218 224 211 204 206 202 206 198 198 198 170 210 207 186 156

GFSMA_2pvu_pres_237.txt.gz
Presure
169 160 138 168 170 179 165 164 144 163 148 152 136 151 149 136 158 160 148 159 160 125 143 143 151 162 158 162 187 148 182 163 156 145 162 179 172 165 176 164 161 172 171
151 169 143 147 124 145 145 144 165 143 144 155 133 145 130 147 144 143 153 136 155 139 155 142 145 147 143 163 157 165 147 168 151 152 160 166 142 158 191 166 168 166 159
154 155 162 162 146 153 167 154 164 162 170 163 160 147 154 153 154 143 155 159 152 162 136 155 129 150 164 168 129 132 171 192 158 148 145 149 182 145 169 163 143 170 170
174 175 170 162 160 168 160 155 150 155 154 163 138 145 137 149 127 136 150 149 148 130 134 136 150 151 165 132 142 175 153 192 175 166 170 133 134 167 178 133 144 169 169
184 185 185 179 177 182 185 172 168 167 158 152 155 164 151 143 143 137 125 128 151 142 151 159 120 169 122 144 127 159 166 143 140 170 154 167 146 157 168 163 135 158 150
195 182 173 169 174 162 166 147 154 156 163 181 162 156 138 174 123 126 139 143 143 140 137 143 144 126 155 132 155 146 144 134 152 126 143 159 161 141 141 142 185 133 127
187 198 162 183 185 184 174 177 180 177 149 163 173 181 174 140 155 178 141 147 148 128 134 131 140 144 150 122 160 157 139 131 171 165 137 184 147 152 127 179 132 185 149
167 148 170 174 173 181 180 177 177 182 183 167 189 170 168 198 202 161 166 180 162 121 146 148 156 158 148 159 161 162 126 176 117 138 165 132 161 139 133 144 136 153 140
183 181 170 171 166 173 182 183 163 187 192 177 183 142 176 187 160 182 206 148 202 161 155 137 151 143 131 161 143 149 129 148 130 151 152 123 171 185 135 174 159 152 150
173 157 174 172 169 177 174 169 186 195 199 177 167 211 196 154 174 173 203 175 207 161 187 155 156 133 152 130 175 147 141 95 146 161 201 204 126 182 113 194 139 143 130
171 185 194 187 160 182 179 178 189 173 180 189 193 178 189 192 201 160 205 187 199 143 129 160 159 147 153 152 147 160 134 161 157 135 153 118 172 198 187 215 112 142 133
177 176 193 190 187 186 187 177 179 179 185 188 230 200 198 192 202 199 201 148 184 218 177 139 183 172 172 127 173 163 165 149 165 158 127 126 142 143 158 156 188 169 129
190 191 202 191 183 186 190 178 182 183 201 187 237 231 225 234 206 207 208 214 152 213 201 206 220 170 170 166 171 150 166 161 155 159 117 169 154 163 171 189 140 154 194
194 211 181 189 198 193 200 202 193 206 234 238 262 262 252 256 249 245 240 223 217 224 146 159 212 160 149 172 187 164 165 126 114 171 167 148 143 163 168 179 137 129 170
194 161 201 191 198 213 197 244 242 237 281 275 440 459 462 488 493 444 397 415 354 266 224 216 137 220 151 166 154 139 159 161 122 171 172 166 162 163 138 123 150 149 184
183 195 190 199 196 233 244 237 277 280 430 414 411 424 484 486 462 464 431 409 387 325 276 239 185 172 254 237 161 176 146 155 172 138 169 153 143 137 198 173 162 180 187
185 204 208 223 221 229 272 280 258 400 396 386 389 419 465 455 443 422 467 405 386 379 287 289 216 174 219 155 195 148 160 184 169 176 162 124 159 161 157 172 181 183 185
200 212 220 228 228 234 268 254 375 366 372 362 373 399 417 435 402 415 399 431 405 347 293 291 256 190 217 248 258 174 192 157 156 149 147 142 181 160 139 172 153 177 161
214 233 205 227 275 260 303 348 361 353 359 345 339 372 395 406 401 425 369 385 417 355 278 234 260 198 190 188 166 258 169 165 169 163 136 163 150 159 161 131 172 151 154
223 219 272 261 250 242 322 334 338 352 344 335 334 349 357 383 379 371 394 371 308 334 269 263 250 246 225 245 187 149 169 167 171 180 183 157 171 152 172 177 170 176 180
252 257 242 241 239 315 314 329 324 323 342 335 339 324 336 354 361 371 380 407 311 321 311 256 262 241 229 234 226 206 190 249 184 198 175 185 185 188 172 171 185 164 171
246 234 262 273 315 308 308 320 320 311 330 319 317 334 331 330 342 362 363 389 383 303 341 239 261 235 228 230 234 214 185 226 226 220 235 246 140 160 173 136 131 170 170
229 262 321 313 307 296 301 308 315 307 319 326 332 325 317 324 324 344 354 363 375 286 342 282 250 241 234 228 231 232 210 236 220 224 239 211 146 192 200 171 181 161 174
320 318 316 309 301 296 296 306 313 312 315 315 309 319 317 319 322 330 348 342 329 281 331 314 266 251 238 254 247 251 240 229 241 265 195 175 205 213 180 213 212 190 143
313 309 307 303 295 296 295 303 312 309 305 315 316 314 306 314 325 329 330 323 317 334 266 243 259 244 245 240 247 239 276 242 240 214 205 210 205 213 203 207 202 212 145
308 305 304 303 302 300 299 308 315 304 305 310 306 318 310 315 323 336 339 332 319 314 288 266 253 237 242 245 248 258 242 246 239 232 219 219 222 236 236 216 214 226 184

GFSMA_2pvu_pres_240.txt.gz
Presure
170 163 144 155 146 143 154 132 137 146 169 181 183 151 156 155 143 149 143 141 152 145 154 182 158 149 142 158 162 163 152 181 162 184 162 149 164 163 162 157 166 161 186
182 162 166 165 154 145 158 150 177 158 152 150 146 134 123 140 166 143 142 151 151 149 138 126 164 141 149 170 171 162 153 172 151 146 187 184 152 143 144 144 142 142 169
188 187 184 180 184 177 173 162 160 161 153 160 168 152 159 153 153 168 123 135 161 162 161 164 166 154 167 152 170 150 166 179 144 161 179 164 182 165 167 161 177 147 143
176 185 200 199 207 198 188 179 176 162 164 153 161 173 159 163 152 132 149 153 144 122 135 112 158 156 125 162 144 151 164 145 136 156 150 174 146 143 144 135 133 162 168
183 184 183 177 180 176 160 165 193 174 177 179 177 168 179 170 164 149 138 143 149 132 138 148 143 138 147 169 146 158 169 137 134 134 144 174 169 153 156 163 158 137 164
179 180 173 166 172 177 164 164 160 179 189 191 200 168 189 185 173 181 167 164 144 146 143 141 147 146 132 131 163 150 136 123 135 169 155 167 134 160 159 134 160 171 144
179 178 175 162 174 171 173 167 179 140 157 170 152 183 178 165 126 195 203 208 190 185 156 153 146 151 122 151 152 139 169 119 165 173 149 124 133 170 182 185 173 151 161
175 179 159 174 158 171 173 177 173 179 181 165 172 171 169 166 159 185 179 194 139 185 203 161 148 166 147 148 141 153 127 166 140 164 166 166 107 162 153 163 186 185 141
170 157 174 162 164 178 168 171 180 179 180 186 183 192 146 140 179 163 168 159 182 184 189 186 162 164 133 167 168 152 150 133 132 154 143 162 138 177 177 170 165 165 134
174 172 178 179 166 174 173 183 186 187 186 188 187 189 167 183 189 183 180 176 141 172 118 143 163 170 177 130 133 162 169 166 165 158 162 154 155 146 176 187 181 173 194
167 184 180 171 176 170 180 173 184 192 189 189 182 165 194 181 157 190 197 176 191 181 187 184 150 165 191 143 190 147 153 158 156 152 133 156 128 160 186 158 137 157 116
185 186 158 171 179 179 188 173 184 200 189 205 196 203 191 184 180 186 187 199 180 177 190 166 185 162 152 199 151 197 175 139 178 160 173 160 162 168 149 194 136 147 155
175 181 176 173 190 189 175 189 196 203 191 189 175 180 181 199 223 239 233 219 236 206 194 205 223 220 145 211 212 168 189 144 150 165 141 176 176 130 170 152 139 140 148
183 175 174 188 181 194 175 176 192 186 183 183 208 216 231 233 238 238 248 309 296 270 266 277 260 132 201 226 212 165 136 139 120 166 150 162 159 184 151 142 134 176 196
188 189 188 196 181 186 206 191 181 189 197 208 219 236 236 288 279 248 338 400 502 521 519 183 334 260 176 246 216 175 176 129 204 169 184 142 166 127 138 185 177 151 167
196 198 180 202 196 208 197 190 185 202 194 222 240 295 275 246 297 383 422 502 519 528 433 540 461 364 127 276 148 179 170 171 186 170 179 121 196 170 158 141 173 172 174
193 196 195 199 196 194 189 186 205 218 215 234 269 252 248 322 367 386 417 459 429 470 438 406 474 371 396 311 271 199 182 152 151 146 163 162 164 165 144 171 164 151 178
158 202 199 198 184 174 179 190 204 226 235 272 242 239 337 352 368 377 388 419 411 416 460 399 434 430 252 219 275 248 172 157 175 162 136 187 181 168 184 166 139 154 165
197 199 188 196 183 205 195 225 228 285 258 239 267 335 333 348 351 343 364 404 373 393 393 427 413 347 345 276 295 237 224 185 206 149 155 188 158 160 166 151 164 175 179
208 205 187 200 194 205 214 260 263 252 239 316 325 319 328 338 343 338 344 364 379 374 399 451 410 395 313 277 255 251 231 237 181 196 159 157 171 173 160 133 182 178 133
198 195 191 210 219 208 262 245 243 234 324 323 317 311 321 337 347 340 333 340 355 364 398 371 399 373 291 269 241 230 221 195 225 172 185 159 186 188 158 129 188 183 155
191 211 225 249 259 259 243 337 332 324 317 315 307 308 315 321 327 343 344 326 344 357 382 362 373 392 283 292 243 227 222 208 223 178 234 145 151 191 211 190 159 171 185
237 269 262 249 230 339 331 323 324 317 309 305 302 305 311 319 313 324 328 332 329 349 365 357 317 347 347 285 251 247 246 246 192 199 174 211 159 154 198 153 196 175 158
244 242 350 343 338 332 325 323 318 308 302 300 299 302 311 317 316 321 322 335 328 348 346 363 324 356 288 267 255 236 250 254 250 200 210 165 190 182 190 214 162 160 172
354 343 342 338 327 322 315 313 309 304 302 299 299 301 309 316 314 309 327 324 335 347 354 339 309 284 294 252 255 264 236 224 214 231 221 207 182 170 174 210 213 220 192
335 331 332 332 331 323 318 318 314 308 306 305 304 302 308 314 313 311 313 351 344 349 337 325 295 274 266 265 255 245 241 237 216 207 204 212 224 198 185 176 212 186 169